FW2081 Weather Reports


time (UTC)temp
F
wind
direction
speed
knots
gust
knots
rain 1hr
in
rain 24hr
in
rain mn
in
humidity
%
barometer
mb
20260510081504 46 253 0.0 0.0 0.00 0.88 0.00 96 1008.7
20260510080058 46 253 0.0 0.0 0.00 0.88 0.00 96 1008.8
20260510074532 45 253 0.0 0.0 0.00 0.88 0.00 96 1008.8
20260510073025 45 203 0.0 0.0 0.00 0.88 0.00 96 1009.1
20260510071549 45 203 0.0 0.0 0.00 1.07 0.00 96 1009.4
20260510070035 46 172 0.0 0.0 0.00 1.07 0.00 96 1009.6
20260510064508 46 172 0.0 0.0 0.00 1.07 0.00 96 1009.7
20260510063038 46 172 0.0 0.0 0.00 1.07 0.00 96 1010.1
20260510061515 46 153 0.0 0.9 0.00 1.08 0.00 96 1010.2
20260510060059 46 63 0.9 4.3 0.00 1.08 0.00 96 1010.3
20260510054532 46 170 0.0 0.0 0.00 1.08 0.00 96 1010.3
20260510053012 46 199 0.0 0.9 0.00 1.08 0.00 96 1009.6
20260510051604 46 215 0.0 0.0 0.00 1.08 0.00 96 1009.6
20260510050024 47 214 0.0 0.0 0.00 1.08 0.00 96 1009.6
20260510044508 47 214 0.0 0.0 0.00 1.08 0.00 96 1009.7
20260510043046 47 213 0.0 0.9 0.00 1.08 0.00 96 1009.6
20260510041523 47 210 0.0 0.0 0.00 1.08 1.08 96 1009.5
20260510040105 47 235 0.0 0.0 0.00 1.08 1.08 96 1009.2
20260510034539 47 214 0.0 0.0 0.00 1.08 1.08 96 1009.1
20260510033021 47 214 0.0 0.9 0.00 1.08 1.08 96 1009.0
20260510031603 47 291 0.0 0.9 0.00 1.08 1.08 96 1009.2
20260510030041 47 253 0.0 0.0 0.00 1.08 1.08 96 1009.2
20260510024521 47 253 0.0 0.9 0.00 1.08 1.08 95 1009.2
20260510023057 47 230 0.0 1.7 0.00 1.08 1.08 95 1009.1
20260510021620 47 221 0.0 0.9 0.00 1.08 1.08 95 1009.0
20260510020019 47 221 0.0 0.9 0.00 1.08 1.08 95 1009.0
20260510014558 47 221 0.0 0.9 0.00 1.08 1.08 95 1008.9
20260510013035 47 195 0.0 0.9 0.00 1.08 1.08 95 1008.8
20260510011518 48 195 0.0 0.0 0.00 1.08 1.08 95 1008.8
20260510010059 48 187 0.0 0.0 0.00 1.08 1.08 95 1008.8
20260510004536 48 187 0.0 0.9 0.00 1.08 1.08 95 1008.8
20260510003022 48 318 0.0 0.9 0.00 1.08 1.08 95 1008.6
20260510001553 48 319 0.0 0.9 0.00 1.08 1.08 95 1008.2
20260510000034 48 246 0.0 1.7 0.00 1.08 1.08 94 1008.1
20260509234521 48 161 0.0 0.0 0.00 1.08 1.08 94 1008.0
20260509233003 48 163 0.0 0.9 0.00 1.08 1.08 94 1007.8
20260509231539 48 281 0.0 2.6 0.00 1.08 1.08 93 1007.5
20260509230026 48 166 0.0 3.5 0.00 1.08 1.08 93 1007.5
20260509224553 48 192 0.0 3.5 0.00 1.08 1.08 93 1007.4
20260509223034 48 143 0.0 2.6 0.00 1.08 1.08 93 1007.5
20260509221510 48 231 0.9 2.6 0.00 1.08 1.08 93 1007.6
20260509220051 48 176 0.0 4.3 0.00 1.08 1.08 93 1007.8
20260509214529 48 155 0.0 1.7 0.00 1.08 1.08 93 1007.9
20260509213010 48 191 0.0 2.6 0.00 1.08 1.08 94 1007.8
20260509211549 47 198 0.0 3.5 0.01 1.08 1.08 94 1008.1
20260509210026 47 5 0.0 2.6 0.02 1.08 1.08 94 1008.1
20260509204509 47 150 0.0 4.3 0.03 1.08 1.08 94 1008.2
20260509203042 47 219 0.0 3.5 0.05 1.08 1.08 94 1008.4
20260509201526 47 153 0.0 3.5 0.06 1.07 1.07 95 1008.5
20260509200007 47 184 0.0 3.5 0.07 1.06 1.07 94 1008.6
20260509194554 47 129 0.0 3.5 0.07 1.05 1.05 94 1008.9
20260509193034 47 300 0.0 2.6 0.08 1.03 1.03 95 1009.0
20260509191511 47 180 0.0 2.6 0.08 1.01 1.01 95 1009.0
20260509190055 47 295 0.9 3.5 0.09 0.99 0.99 95 1009.1
20260509184535 47 6 0.9 2.6 0.12 0.98 0.98 95 1009.0
20260509183016 47 129 0.0 5.2 0.12 0.95 0.95 95 1009.1
20260509181554 46 175 0.9 7.0 0.12 0.93 0.93 95 1009.1
20260509180048 46 237 0.0 2.6 0.11 0.90 0.90 95 1009.0
20260509174519 46 254 0.0 1.7 0.09 0.86 0.86 95 1008.9
20260509173104 45 278 0.0 2.6 0.09 0.83 0.83 95 1008.8
20260509171539 45 302 0.0 1.7 0.08 0.81 0.81 95 1008.9
20260509170016 45 269 0.0 1.7 0.07 0.78 0.78 95 1008.9
20260509164550 45 320 0.0 2.6 0.07 0.76 0.77 95 1009.0
20260509163032 45 280 0.9 2.6 0.07 0.74 0.74 95 1009.1
20260509161510 44 317 0.0 1.7 0.07 0.73 0.73 95 1009.3
20260509160051 44 304 0.9 2.6 0.07 0.71 0.71 95 1009.7
20260509154529 44 295 0.0 1.7 0.07 0.69 0.69 95 1009.7
20260509153027 44 300 0.0 0.9 0.06 0.67 0.67 95 1009.9
20260509151545 44 303 0.0 2.6 0.07 0.67 0.66 95 1010.1
20260509150024 43 304 0.0 2.6 0.06 0.65 0.64 94 1010.2
20260509144553 43 305 0.0 1.7 0.06 0.63 0.62 94 1010.2
20260509143032 43 310 0.0 2.6 0.07 0.62 0.61 94 1010.2
20260509141532 43 301 0.9 4.3 0.07 0.60 0.59 94 1010.1
20260509140108 43 325 0.9 2.6 0.07 0.59 0.57 93 1010.2
20260509134539 43 316 1.7 4.3 0.05 0.56 0.56 93 1010.2
20260509133021 43 312 0.9 2.6 0.03 0.55 0.54 93 1010.3
20260509131604 43 309 0.9 3.5 0.01 0.53 0.52 93 1010.1
20260509131502 43 309 0.9 3.5 0.01 0.53 0.52 93 1010.1